| time (UTC) | temp F | wind direction | speed MPH | gust MPH | rain 1hr in | rain 24hr in | rain mn in | humidity % | barometer mb |
| 20260906183036 | 80 | 51 | 1.0 | 5.0 | 0.00 | 0.00 | 0.00 | 52 | 1016.7 |
| 20260906182017 | 80 | 47 | 1.0 | 5.0 | 0.00 | 0.00 | 0.00 | 50 | 1016.7 |
| 20260906181017 | 80 | 113 | 1.0 | 6.0 | 0.00 | 0.00 | 0.00 | 51 | 1016.9 |
| 20260906180037 | 80 | 83 | 3.0 | 7.0 | 0.00 | 0.00 | 0.00 | 52 | 1016.8 |
| 20260906175017 | 80 | 85 | 3.0 | 7.0 | 0.00 | 0.00 | 0.00 | 51 | 1016.9 |
| 20260906174018 | 80 | 90 | 2.0 | 5.0 | 0.00 | 0.00 | 0.00 | 51 | 1016.9 |
| 20260906173057 | 80 | 360 | 1.0 | 5.0 | 0.00 | 0.00 | 0.00 | 53 | 1016.9 |
| 20260906172037 | 79 | 58 | 2.0 | 7.0 | 0.00 | 0.00 | 0.00 | 52 | 1017.2 |
| 20260906171038 | 78 | 310 | 1.0 | 3.0 | 0.00 | 0.00 | 0.00 | 54 | 1017.4 |
| 20260906170015 | 78 | 87 | 2.0 | 6.0 | 0.00 | 0.00 | 0.00 | 54 | 1017.6 |
| 20260906165015 | 77 | 307 | 1.0 | 5.0 | 0.00 | 0.00 | 0.00 | 54 | 1017.5 |
| 20260906164015 | 77 | 307 | 1.0 | 4.0 | 0.00 | 0.00 | 0.00 | 56 | 1017.6 |
| 20260906163015 | 77 | 357 | 1.0 | 4.0 | 0.00 | 0.00 | 0.00 | 57 | 1017.6 |
| 20260906162015 | 77 | 270 | 1.0 | 4.0 | 0.00 | 0.00 | 0.00 | 59 | 1017.5 |
| 20260906161016 | 76 | 79 | 1.0 | 5.0 | 0.00 | 0.00 | 0.00 | 60 | 1017.8 |
| 20260906160016 | 76 | 63 | 2.0 | 4.0 | 0.00 | 0.00 | 0.00 | 60 | 1017.5 |
| 20260906155016 | 76 | 74 | 2.0 | 6.0 | 0.00 | 0.00 | 0.00 | 59 | 1017.5 |
| 20260906154016 | 76 | 82 | 2.0 | 6.0 | 0.00 | 0.00 | 0.00 | 62 | 1017.4 |
| 20260906153017 | 75 | 337 | 1.0 | 4.0 | 0.00 | 0.00 | 0.00 | 60 | 1017.5 |
| 20260906152017 | 75 | 320 | 1.0 | 6.0 | 0.00 | 0.00 | 0.00 | 60 | 1017.6 |
| 20260906151057 | 75 | 74 | 2.0 | 6.0 | 0.00 | 0.00 | 0.00 | 60 | 1017.5 |
| 20260906150017 | 76 | 72 | 2.0 | 6.0 | 0.00 | 0.00 | 0.00 | 60 | 1017.4 |
| 20260906145017 | 75 | 81 | 2.0 | 6.0 | 0.00 | 0.00 | 0.00 | 61 | 1017.3 |
| 20260906144017 | 75 | 339 | 1.0 | 4.0 | 0.00 | 0.00 | 0.00 | 62 | 1017.3 |
| 20260906143018 | 75 | 356 | 1.0 | 4.0 | 0.00 | 0.00 | 0.00 | 63 | 1017.3 |
| 20260906142018 | 74 | 64 | 1.0 | 5.0 | 0.00 | 0.00 | 0.00 | 63 | 1017.4 |
| 20260906141018 | 74 | 4 | 1.0 | 6.0 | 0.00 | 0.00 | 0.00 | 63 | 1017.3 |
| 20260906140015 | 73 | 300 | 1.0 | 5.0 | 0.00 | 0.00 | 0.00 | 65 | 1017.2 |
| 20260906135015 | 72 | 73 | 2.0 | 7.0 | 0.00 | 0.00 | 0.00 | 66 | 1017.2 |
| 20260906134015 | 72 | 74 | 2.0 | 6.0 | 0.00 | 0.00 | 0.00 | 67 | 1017.2 |
| 20260906133015 | 72 | 94 | 1.0 | 4.0 | 0.00 | 0.00 | 0.00 | 67 | 1017.0 |
| 20260906132016 | 70 | 64 | 1.0 | 5.0 | 0.00 | 0.00 | 0.00 | 69 | 1017.0 |
| 20260906131036 | 69 | 307 | 1.0 | 4.0 | 0.00 | 0.00 | 0.00 | 71 | 1017.1 |
| 20260906130016 | 68 | 73 | 2.0 | 8.0 | 0.00 | 0.00 | 0.00 | 72 | 1017.0 |
| 20260906125016 | 68 | 60 | 2.0 | 5.0 | 0.00 | 0.00 | 0.00 | 74 | 1017.1 |
| 20260906124016 | 67 | 66 | 2.0 | 7.0 | 0.00 | 0.00 | 0.00 | 75 | 1017.0 |
| 20260906123017 | 66 | 38 | 1.0 | 3.0 | 0.00 | 0.00 | 0.00 | 77 | 1016.8 |
| 20260906122017 | 64 | 84 | 1.0 | 3.0 | 0.00 | 0.00 | 0.00 | 81 | 1016.6 |
| 20260906121037 | 63 | 203 | 1.0 | 2.0 | 0.00 | 0.00 | 0.00 | 83 | 1016.4 |
| 20260906120017 | 62 | 199 | 1.0 | 3.0 | 0.00 | 0.01 | 0.00 | 85 | 1016.3 |
| 20260906115038 | 62 | 170 | 1.0 | 4.0 | 0.00 | 0.03 | 0.00 | 86 | 1016.1 |
| 20260906114017 | 61 | 209 | 1.0 | 3.0 | 0.00 | 0.07 | 0.00 | 88 | 1016.0 |
| 20260906113017 | 61 | 208 | 1.0 | 3.0 | 0.00 | 0.09 | 0.00 | 88 | 1016.0 |
| 20260906112018 | 61 | 213 | 1.0 | 3.0 | 0.00 | 0.12 | 0.00 | 89 | 1015.9 |
| 20260906111018 | 61 | 208 | 1.0 | 3.0 | 0.00 | 0.14 | 0.00 | 88 | 1015.9 |
| 20260906110018 | 62 | 198 | 1.0 | 3.0 | 0.00 | 0.16 | 0.00 | 87 | 1015.8 |
| 20260906105015 | 62 | 202 | 0.0 | 4.0 | 0.00 | 0.20 | 0.00 | 86 | 1015.9 |
| 20260906104015 | 63 | 202 | 1.0 | 4.0 | 0.00 | 0.23 | 0.00 | 85 | 1015.8 |
| 20260906103015 | 63 | 205 | 1.0 | 3.0 | 0.00 | 0.26 | 0.00 | 84 | 1015.8 |
| 20260906102015 | 64 | 218 | 0.0 | 2.0 | 0.00 | 0.31 | 0.00 | 83 | 1015.7 |
| 20260906101015 | 64 | 208 | 0.0 | 2.0 | 0.00 | 0.34 | 0.00 | 82 | 1015.8 |
| 20260906100036 | 65 | 281 | 1.0 | 3.0 | 0.00 | 0.38 | 0.00 | 81 | 1015.6 |
| 20260906095036 | 66 | 61 | 1.0 | 3.0 | 0.00 | 0.39 | 0.00 | 79 | 1015.5 |
| 20260906094016 | 67 | 41 | 1.0 | 3.0 | 0.00 | 0.39 | 0.00 | 77 | 1015.5 |
| 20260906093037 | 67 | 53 | 1.0 | 3.0 | 0.00 | 0.62 | 0.00 | 76 | 1015.5 |
| 20260906092038 | 67 | 54 | 1.0 | 3.0 | 0.00 | 0.78 | 0.00 | 75 | 1015.5 |
| 20260906091017 | 68 | 59 | 1.0 | 3.0 | 0.00 | 0.78 | 0.00 | 73 | 1015.5 |
| 20260906090017 | 68 | 45 | 1.0 | 4.0 | 0.00 | 0.78 | 0.00 | 73 | 1015.4 |
| 20260906085017 | 68 | 27 | 1.0 | 4.0 | 0.00 | 0.80 | 0.00 | 72 | 1015.2 |
| 20260906084017 | 68 | 45 | 1.0 | 4.0 | 0.00 | 0.88 | 0.00 | 72 | 1015.2 |
| 20260906083037 | 69 | 43 | 1.0 | 3.0 | 0.00 | 1.05 | 0.00 | 72 | 1015.2 |
| 20260906082018 | 69 | 51 | 1.0 | 3.0 | 0.00 | 1.06 | 0.00 | 71 | 1015.2 |
| 20260906081058 | 69 | 68 | 1.0 | 4.0 | 0.00 | 1.06 | 0.00 | 71 | 1015.2 |
| 20260906080015 | 69 | 55 | 1.0 | 3.0 | 0.00 | 1.06 | 0.00 | 71 | 1015.2 |
| 20260906075018 | 69 | 62 | 1.0 | 2.0 | 0.00 | 1.06 | 0.00 | 70 | 1015.2 |
| 20260906074018 | 69 | 66 | 0.0 | 2.0 | 0.00 | 1.06 | 0.00 | 71 | 1015.2 |
| 20260906073055 | 69 | 71 | 1.0 | 3.0 | 0.00 | 1.06 | 0.00 | 70 | 1015.0 |
| 20260906072016 | 70 | 69 | 1.0 | 6.0 | 0.00 | 1.06 | 0.00 | 70 | 1014.9 |
| 20260906071016 | 70 | 68 | 1.0 | 3.0 | 0.00 | 1.06 | 0.00 | 70 | 1015.0 |
| 20260906070016 | 70 | 53 | 1.0 | 4.0 | 0.00 | 1.06 | 0.00 | 70 | 1015.2 |
| 20260906065037 | 70 | 70 | 1.0 | 3.0 | 0.00 | 1.06 | 0.00 | 71 | 1015.2 |
| 20260906064016 | 70 | 73 | 1.0 | 2.0 | 0.00 | 1.06 | 0.00 | 71 | 1015.2 |
| 20260906063037 | 70 | 60 | 1.0 | 2.0 | 0.00 | 1.06 | 0.00 | 71 | 1015.2 |
| 20260906062016 | 70 | 56 | 0.0 | 2.0 | 0.00 | 1.06 | 0.00 | 71 | 1015.2 |
| 20260906061017 | 70 | 69 | 2.0 | 4.0 | 0.00 | 1.06 | 0.00 | 72 | 1015.0 |
| 20260906060017 | 70 | 72 | 1.0 | 3.0 | 0.00 | 1.06 | 0.00 | 72 | 1015.0 |
| 20260906055017 | 70 | 71 | 1.0 | 4.0 | 0.00 | 1.06 | 0.00 | 72 | 1014.9 |
| 20260906054038 | 70 | 69 | 2.0 | 4.0 | 0.00 | 1.06 | 0.00 | 73 | 1014.9 |
| 20260906053016 | 70 | 71 | 1.0 | 3.0 | 0.00 | 1.06 | 0.00 | 75 | 1014.8 |
| 20260906052036 | 70 | 77 | 1.0 | 6.0 | 0.00 | 1.06 | 0.00 | 77 | 1014.8 |
| 20260906051016 | 70 | 68 | 2.0 | 4.0 | 0.00 | 1.06 | 0.00 | 77 | 1014.7 |
| 20260906050016 | 70 | 46 | 1.0 | 5.0 | 0.00 | 1.06 | 0.00 | 78 | 1014.7 |
| 20260906045016 | 70 | 62 | 1.0 | 3.0 | 0.00 | 1.06 | 0.00 | 79 | 1014.5 |
| 20260906044016 | 70 | 68 | 1.0 | 4.0 | 0.00 | 1.06 | 0.00 | 79 | 1014.4 |
| 20260906043015 | 70 | 39 | 1.0 | 3.0 | 0.00 | 1.06 | 0.00 | 79 | 1014.3 |
| 20260906042056 | 71 | 56 | 1.0 | 4.0 | 0.00 | 1.06 | 0.00 | 79 | 1014.2 |
| 20260906041016 | 71 | 353 | 1.0 | 2.0 | 0.00 | 1.06 | 0.00 | 80 | 1014.2 |
| 20260906040016 | 72 | 56 | 0.0 | 2.0 | 0.00 | 1.06 | 0.00 | 81 | 1014.3 |
| 20260906035016 | 72 | 77 | 0.0 | 3.0 | 0.00 | 1.06 | 1.06 | 81 | 1014.3 |
| 20260906034036 | 73 | 28 | 1.0 | 3.0 | 0.00 | 1.06 | 1.06 | 83 | 1014.4 |
| 20260906033036 | 73 | 67 | 0.0 | 3.0 | 0.00 | 1.06 | 1.06 | 84 | 1014.4 |
| 20260906032017 | 73 | 296 | 0.0 | 3.0 | 0.00 | 1.06 | 1.06 | 84 | 1014.4 |
| 20260906031017 | 74 | 271 | 0.0 | 3.0 | 0.00 | 1.06 | 1.06 | 83 | 1014.5 |
| 20260906030017 | 74 | 352 | 1.0 | 3.0 | 0.00 | 1.06 | 1.06 | 84 | 1014.5 |
| 20260906025017 | 75 | 322 | 0.0 | 2.0 | 0.00 | 1.06 | 1.06 | 84 | 1014.5 |
| 20260906024017 | 75 | 86 | 1.0 | 4.0 | 0.00 | 1.06 | 1.06 | 84 | 1014.4 |
| 20260906023017 | 75 | 324 | 1.0 | 3.0 | 0.00 | 1.06 | 1.06 | 85 | 1014.4 |
| 20260906022018 | 75 | 292 | 0.0 | 3.0 | 0.00 | 1.06 | 1.06 | 86 | 1014.3 |
| 20260906021017 | 75 | 291 | 0.0 | 2.0 | 0.00 | 1.06 | 1.06 | 86 | 1014.2 |
| 20260906020038 | 75 | 21 | 0.0 | 0.0 | 0.00 | 1.06 | 1.06 | 85 | 1014.2 |
| 20260906015015 | 75 | 57 | 1.0 | 3.0 | 0.00 | 1.06 | 1.06 | 84 | 1014.1 |
| 20260906014018 | 76 | 237 | 1.0 | 3.0 | 0.00 | 1.06 | 1.06 | 83 | 1013.8 |
| 20260906013016 | 76 | 4 | 1.0 | 3.0 | 0.00 | 1.06 | 1.06 | 83 | 1013.6 |
| 20260906012015 | 76 | 292 | 1.0 | 3.0 | 0.00 | 1.06 | 1.06 | 83 | 1013.6 |
| 20260906011016 | 77 | 5 | 1.0 | 3.0 | 0.00 | 1.06 | 1.06 | 82 | 1013.5 |
| 20260906010016 | 77 | 43 | 1.0 | 4.0 | 0.00 | 1.06 | 1.06 | 83 | 1013.4 |
| 20260906005036 | 77 | 287 | 1.0 | 3.0 | 0.00 | 1.06 | 1.06 | 83 | 1013.3 |
| 20260906004016 | 78 | 267 | 0.0 | 2.0 | 0.00 | 1.06 | 1.06 | 82 | 1013.1 |
| 20260906003016 | 78 | 281 | 0.0 | 1.0 | 0.00 | 1.06 | 1.06 | 81 | 1013.1 |
| 20260906002017 | 78 | 287 | 0.0 | 2.0 | 0.00 | 1.06 | 1.06 | 81 | 1013.1 |
| 20260906001017 | 79 | 271 | 0.0 | 2.0 | 0.00 | 1.06 | 1.06 | 80 | 1013.2 |
| 20260906000017 | 79 | 286 | 0.0 | 2.0 | 0.00 | 1.06 | 1.06 | 79 | 1013.2 |
| 20260905235017 | 80 | 274 | 0.0 | 1.0 | 0.00 | 1.06 | 1.06 | 78 | 1013.2 |
| 20260905234017 | 80 | 293 | 0.0 | 1.0 | 0.00 | 1.06 | 1.06 | 77 | 1013.2 |
| 20260905233017 | 80 | 288 | 0.0 | 3.0 | 0.00 | 1.06 | 1.06 | 76 | 1013.1 |
| 20260905232017 | 81 | 279 | 0.0 | 3.0 | 0.00 | 1.06 | 1.06 | 75 | 1013.1 |
| 20260905231018 | 81 | 292 | 1.0 | 2.0 | 0.00 | 1.06 | 1.06 | 75 | 1012.9 |
| 20260905230018 | 81 | 294 | 0.0 | 2.0 | 0.00 | 1.06 | 1.06 | 74 | 1012.6 |
| 20260905225018 | 82 | 304 | 0.0 | 1.0 | 0.00 | 1.06 | 1.06 | 74 | 1012.6 |
| 20260905224016 | 82 | 260 | 0.0 | 2.0 | 0.00 | 1.06 | 1.06 | 73 | 1012.5 |
| 20260905223015 | 82 | 262 | 0.0 | 2.0 | 0.00 | 1.06 | 1.06 | 73 | 1012.3 |
| 20260905222016 | 83 | 293 | 0.0 | 2.0 | 0.00 | 1.06 | 1.06 | 72 | 1012.4 |
| 20260905221016 | 83 | 280 | 1.0 | 4.0 | 0.00 | 1.06 | 1.06 | 70 | 1012.5 |
| 20260905220016 | 83 | 285 | 0.0 | 3.0 | 0.00 | 1.06 | 1.06 | 70 | 1012.6 |
| 20260905215016 | 83 | 301 | 0.0 | 2.0 | 0.00 | 1.06 | 1.06 | 69 | 1012.6 |
| 20260905214016 | 84 | 283 | 1.0 | 4.0 | 0.00 | 1.06 | 1.06 | 68 | 1012.6 |
| 20260905213036 | 85 | 304 | 0.0 | 2.0 | 0.00 | 1.06 | 1.06 | 68 | 1012.5 |
| 20260905212036 | 86 | 296 | 1.0 | 5.0 | 0.00 | 1.06 | 1.06 | 65 | 1012.6 |
| 20260905211017 | 86 | 274 | 1.0 | 3.0 | 0.00 | 1.06 | 1.06 | 65 | 1012.6 |
| 20260905210017 | 86 | 314 | 1.0 | 3.0 | 0.00 | 1.06 | 1.06 | 64 | 1012.5 |
| 20260905205017 | 85 | 313 | 1.0 | 3.0 | 0.00 | 1.06 | 1.06 | 65 | 1012.6 |
| 20260905204037 | 85 | 290 | 2.0 | 7.0 | 0.00 | 1.06 | 1.06 | 64 | 1012.7 |
| 20260905203017 | 83 | 283 | 3.0 | 7.0 | 0.00 | 1.06 | 1.06 | 66 | 1012.9 |
| 20260905202018 | 82 | 260 | 0.0 | 3.0 | 0.00 | 1.06 | 1.06 | 70 | 1013.1 |
| 20260905201038 | 82 | 289 | 2.0 | 6.0 | 0.00 | 1.06 | 1.06 | 71 | 1013.1 |
| 20260905200015 | 82 | 281 | 3.0 | 9.0 | 0.00 | 1.06 | 1.06 | 70 | 1013.1 |
| 20260905195035 | 82 | 286 | 1.0 | 6.0 | 0.00 | 1.06 | 1.06 | 71 | 1013.2 |
| 20260905194015 | 82 | 276 | 1.0 | 4.0 | 0.00 | 1.06 | 1.06 | 71 | 1013.3 |
| 20260905193016 | 82 | 282 | 2.0 | 5.0 | 0.00 | 1.06 | 1.06 | 71 | 1013.4 |
| 20260905192016 | 82 | 280 | 3.0 | 6.0 | 0.00 | 1.06 | 1.06 | 70 | 1013.6 |
| 20260905191016 | 82 | 286 | 2.0 | 6.0 | 0.00 | 1.06 | 1.06 | 69 | 1013.6 |
| 20260905190016 | 82 | 282 | 2.0 | 7.0 | 0.00 | 1.06 | 1.06 | 70 | 1013.7 |
| 20260905185016 | 81 | 290 | 1.0 | 5.0 | 0.00 | 1.06 | 1.06 | 71 | 1013.8 |
| 20260905184016 | 81 | 278 | 1.0 | 5.0 | 0.00 | 1.06 | 1.06 | 70 | 1013.9 |